Погода в Сокирянах

Украина / Черновицкая область     48°27′11″N   27°24′57″E
темп.,
°C
ветер,
м/с
пор.,
м/с
влажн.,
%
обл.,
%
осадки,
мм/ч
давл.,
гПа
погр.,
м
27 ноября, сб
сб2723:00+8ююв91690100 0.1 9971107
02:00+8ю81390100 0.1 995707
05:00+7ююз61282100 0.0 996324
08:00+6ю41087100 0.0 997196
11:00+10ююз51160100 0.0 998432
14:00+11юз41157100 0.0 998511
17:00+9юз346759 0.0 100073
20:00+7зюз22805 0.0 100213
28 ноября, вс
вс2823:00+6ююв11830 0.0 100310
02:00+5ююв22865 0.0 100417
05:00+4юв33865 0.0 100336
08:00+4вюв228655 0.0 100323
11:00+8юв41069100 0.0 1002412
14:00+10ююв3964100 0.0 1001454
17:00+7ююв227912 0.0 100016
20:00+6ююв2290100 0.0 100019
29 ноября, пн
пн2923:00+6вюв2292100 0.0 99823
02:00+6юв3895100 0.0 996183
05:00+8юв61494100 0.0 992442
08:00+7ююв5109694 0.0 991353
11:00+9ююз5877100 0.0 990360
14:00+9зсз91365100 0.1 9911012
17:00+5зсз7137073 0.3 994684
20:00+3зсз613715 0.3 997702
30 ноября, вт
вт3023:00+1з512675 0.0 999633
02:00+1з614695 0.0 1001679
05:000зсз513705 0.0 1001562
08:00+1з71665100 0.0 1003749
11:00+3з101550100 0.0 10041185
14:00+4зсз9145551 0.0 10031400
17:00+2зсз7136538 0.0 1006913
20:00+1зсз61461100 0.0 1006771
1 декабря, ср
ср123:00−1зюз36704 0.0 1007135
02:00−1ююз5126878 0.0 1005271
05:000юз51154100 0.0 1004289
08:00+2зюз61250100 0.0 1004591
11:00+5зсз8154597 0.0 10051695
14:00+5зсз915526 0.0 10051597
17:00+3зсз611588 0.0 1008622
20:00+1юз1170100 0.0 100810